Wind_Speed
34 35 36 37 37 36 36 37 38 39 39 40 40 41 41 42 42 41 42 42 42 43 44 44 45 46 46 46 46 47 48 48 47 46 45 44 44 44 43 43 44 44 45 44 44 44 43 43 43 43 44 44 45 46 46 45 46 48 50 50 51 50 49 52 53 47 43 48 52 53 56 57 57 55 53 51 49 47 45 43 42 42 41 39 38
35 36 37 37 37 36 37 38 38 39 40 40 41 41 41 41 42 42 43 43 43 44 44 45 46 46 46 46 46 46 47 48 47 46 45 46 46 47 46 45 45 45 45 45 44 44 44 43 42 43 44 44 45 47 47 47 47 48 51 50 49 50 50 50 53 52 47 48 51 52 54 57 57 56 55 52 48 47 45 40 39 41 41 39 39
36 37 38 38 37 37 37 38 38 39 40 41 41 42 42 42 42 43 43 44 44 44 45 46 47 46 46 46 46 46 47 47 47 47 47 47 48 49 48 47 46 44 44 43 42 43 43 42 42 42 43 44 44 45 46 47 47 48 51 52 49 49 49 48 50 52 51 49 51 51 51 54 56 57 55 52 50 49 45 37 35 39 41 39 39
38 38 39 39 38 38 38 38 39 39 40 41 42 42 43 44 44 44 44 44 45 45 46 47 47 46 46 45 46 47 47 47 47 47 48 48 48 49 48 47 46 44 42 41 41 41 40 40 42 42 42 42 41 42 43 44 46 48 49 52 51 48 49 50 50 51 52 51 51 49 49 51 54 55 55 53 52 53 49 41 35 38 41 39 37
39 40 40 39 38 38 38 38 39 40 41 42 43 44 45 45 46 45 45 45 45 46 47 47 47 47 46 46 46 47 48 48 47 47 47 48 47 48 48 46 45 43 40 39 39 40 39 39 41 41 41 41 41 41 42 42 44 46 47 49 50 48 47 50 51 51 52 53 52 49 47 47 50 52 54 53 51 53 51 46 39 38 40 40 38
41 41 41 40 39 39 39 38 39 40 41 42 44 45 46 47 47 46 45 45 46 47 47 47 47 47 47 47 47 48 49 48 47 47 47 48 47 47 46 44 42 40 38 37 38 38 39 39 40 41 40 40 41 40 41 41 42 44 45 47 50 49 48 50 52 51 52 54 54 51 46 44 44 47 51 53 52 51 49 47 43 40 40 40 38
42 42 42 41 41 40 39 39 40 41 43 44 45 46 47 47 47 46 45 46 46 47 47 46 47 47 47 48 48 49 49 48 47 48 48 48 47 45 43 41 39 38 36 36 37 37 38 40 40 40 40 40 40 38 38 40 41 42 44 46 49 51 50 47 46 49 52 53 54 53 48 44 43 44 47 51 53 52 49 46 45 42 40 40 40
43 43 42 43 42 41 40 40 41 43 44 46 47 47 48 47 47 46 46 46 47 47 47 47 47 47 48 48 48 49 49 47 47 49 48 47 45 42 40 38 36 36 35 35 36 36 38 40 40 39 38 38 38 37 37 38 39 41 42 44 48 52 53 47 41 44 52 54 53 55 51 45 44 44 45 50 52 52 50 46 44 43 41 41 42
44 44 43 43 42 40 40 41 42 44 45 47 48 48 48 48 47 47 46 47 47 47 48 48 47 47 48 48 48 48 48 48 49 49 47 45 42 39 36 35 34 34 34 34 35 36 38 39 39 39 37 36 36 36 35 36 37 39 41 43 46 51 55 53 45 42 50 55 54 55 53 44 41 42 44 49 52 51 50 48 47 45 42 42 43
45 44 43 42 40 40 42 43 44 46 47 48 49 48 49 48 48 48 47 47 48 48 48 48 48 48 49 48 48 47 46 46 47 45 44 42 39 36 34 34 33 33 33 33 34 35 36 38 39 38 36 35 35 35 34 34 34 36 39 42 46 50 53 55 50 44 47 54 55 57 55 46 41 41 43 47 51 51 51 50 49 47 43 42 42
46 45 43 41 41 42 43 44 46 48 49 49 49 49 49 49 49 49 48 48 48 49 49 48 48 49 48 47 47 46 44 43 42 42 41 39 36 33 33 33 32 32 32 33 34 34 35 37 39 38 36 34 33 33 32 32 32 33 37 40 45 49 51 53 52 48 48 52 54 57 58 52 44 42 43 47 50 51 51 51 50 48 45 42 41
45 45 43 42 43 44 44 45 47 49 50 50 50 50 50 50 49 49 48 48 48 48 48 48 48 47 46 46 45 44 43 42 40 39 38 36 33 32 32 32 31 31 32 32 33 34 35 36 38 37 36 34 31 30 30 30 31 32 34 38 42 46 48 50 51 50 50 51 52 53 57 56 50 42 41 45 48 49 49 50 50 49 46 41 40
45 44 43 43 44 45 45 47 49 50 50 50 50 50 50 50 50 49 49 48 48 48 48 48 48 46 45 45 43 41 39 39 39 37 35 33 32 31 31 31 31 30 31 33 34 35 36 37 37 36 34 34 31 30 31 32 32 32 33 36 40 42 43 46 49 50 50 52 53 51 52 56 54 44 38 42 46 47 48 50 50 49 45 41 39
45 45 45 45 46 45 47 48 49 50 51 51 51 51 50 49 49 49 48 48 48 48 48 48 48 46 45 44 42 41 39 39 38 35 31 31 31 31 31 31 30 30 30 32 33 35 37 38 38 36 34 33 31 29 32 35 34 32 33 36 38 39 39 41 44 48 49 52 55 53 49 51 54 47 40 41 45 47 48 48 48 48 46 42 41
46 46 46 46 46 47 48 49 50 51 51 51 50 50 49 49 49 48 48 48 47 47 47 48 47 45 44 43 42 43 42 40 38 34 30 28 29 30 30 30 29 29 30 32 33 35 37 38 38 38 35 33 32 29 30 36 36 34 34 36 36 36 37 38 40 43 47 50 54 53 49 49 51 48 43 43 45 46 47 47 48 49 49 45 43
47 47 46 46 47 48 49 50 51 51 51 50 49 49 48 48 48 48 47 47 47 47 47 47 45 44 43 42 42 41 40 39 36 33 29 26 27 28 28 28 28 27 28 31 34 35 36 37 38 38 37 33 32 31 29 33 37 35 35 35 35 35 36 38 39 40 43 48 52 51 50 49 48 46 43 44 46 46 46 47 48 50 50 47 44
47 46 45 45 47 48 49 50 50 50 50 49 48 47 47 47 48 47 47 47 47 47 47 46 44 43 42 42 41 39 37 36 34 32 29 25 25 26 27 28 27 26 27 30 34 35 35 37 38 38 37 34 31 31 29 29 34 35 34 35 35 34 35 37 38 37 39 44 48 49 48 48 48 45 42 43 45 46 46 46 47 49 50 47 45
47 46 45 45 46 48 49 50 49 49 49 48 47 46 46 46 46 46 46 47 47 47 47 45 44 43 42 41 40 37 35 34 33 31 28 25 24 26 27 27 27 26 26 29 32 33 33 35 37 39 38 35 31 30 28 26 31 34 33 33 34 35 35 35 35 35 36 39 43 45 46 47 48 48 44 42 42 46 47 46 47 49 49 47 45
46 45 45 46 46 47 49 49 48 47 48 48 47 46 45 44 44 44 45 47 47 46 45 44 43 42 41 40 39 36 34 33 32 30 28 26 25 26 27 27 27 25 25 27 30 31 31 33 35 38 38 36 32 30 26 24 27 32 32 32 33 34 35 34 34 34 34 35 37 41 43 45 47 48 47 44 42 44 46 47 47 48 48 47 46
45 45 46 47 47 48 48 48 47 47 48 48 47 45 44 43 44 44 45 47 47 45 44 43 42 41 40 39 38 35 33 32 31 30 28 26 25 26 26 26 26 25 24 26 28 30 30 31 33 36 38 36 32 29 25 22 24 29 31 30 30 33 34 34 34 34 34 34 35 37 41 43 45 46 46 45 43 44 46 47 47 46 46 47 46
46 46 47 47 48 48 48 48 48 48 47 46 46 44 44 44 44 45 46 47 47 45 43 43 42 40 39 38 37 34 32 31 31 29 27 24 23 24 25 25 25 25 24 25 28 28 29 30 32 34 37 36 32 28 24 21 21 25 30 29 28 30 32 33 34 35 34 35 35 36 38 41 43 45 45 44 44 44 46 48 47 45 44 45 44
46 47 47 48 48 48 48 48 48 47 45 44 44 44 44 44 45 45 45 46 46 45 44 43 41 40 39 37 35 34 31 30 29 28 26 24 23 24 25 25 25 25 24 25 27 28 29 30 31 32 35 35 33 29 25 21 19 21 25 27 26 29 30 30 34 36 35 35 36 36 37 39 41 43 44 43 43 45 47 48 47 44 44 46 45
46 46 47 48 48 49 48 48 46 45 43 44 45 45 45 45 45 45 45 45 46 45 44 43 41 40 39 37 35 33 31 29 28 27 26 24 25 25 25 24 25 25 24 25 27 28 29 31 31 31 33 34 33 30 25 20 18 18 19 21 22 26 28 28 31 35 35 35 36 37 38 39 40 41 43 43 43 45 48 49 47 45 45 46 47
46 47 47 47 48 49 48 47 46 44 43 45 45 45 45 45 45 45 45 45 45 45 44 43 41 39 38 38 35 33 30 28 27 27 26 25 25 25 24 23 23 24 24 25 26 28 29 30 31 30 30 33 33 31 27 22 18 16 16 19 19 20 23 25 28 33 35 35 36 38 38 38 38 39 41 43 44 45 47 49 49 47 46 46 48
48 48 48 47 48 47 46 45 46 46 44 44 45 44 44 45 45 44 45 45 44 43 42 41 41 40 38 36 34 32 29 28 27 27 26 25 24 24 23 22 22 23 23 24 25 27 28 29 30 29 29 31 33 32 29 24 19 15 14 18 18 15 16 21 26 29 33 35 36 37 37 37 36 37 38 41 43 45 46 47 48 47 46 47 48
48 48 48 48 48 47 45 45 46 46 45 44 44 44 44 44 43 44 44 44 43 42 41 41 42 40 36 33 32 30 29 28 28 27 26 24 24 24 23 22 22 22 22 23 24 25 26 28 29 28 28 30 31 32 30 25 19 14 9 12 16 13 12 18 24 27 30 34 36 36 36 36 35 36 38 38 40 42 43 44 45 45 45 45 45
49 48 47 48 47 46 45 44 43 44 44 43 42 42 43 43 43 43 42 41 40 41 42 42 42 40 35 31 31 30 29 28 27 26 24 23 22 22 21 21 21 20 20 21 23 24 26 27 27 27 28 28 29 30 30 27 21 14 8 5 9 12 13 19 25 26 28 32 35 36 35 35 35 36 38 38 37 38 40 41 43 44 44 43 44
49 48 47 47 47 45 44 43 42 43 43 43 41 41 42 42 42 42 41 40 40 41 42 42 41 40 34 30 29 30 29 27 24 23 22 21 20 20 19 18 18 18 19 20 22 23 24 25 25 27 27 26 26 28 29 28 24 17 10 4 4 9 13 17 24 26 28 31 34 36 36 35 36 37 39 38 37 37 39 41 42 43 42 42 44
48 47 46 46 46 46 44 43 43 42 42 42 41 41 41 41 41 40 40 41 41 40 40 40 40 38 32 27 27 27 25 23 22 20 20 19 19 19 18 17 17 17 18 20 22 23 23 23 24 26 26 25 25 26 27 27 26 21 14 7 1 5 11 15 21 26 29 30 32 35 36 37 39 39 39 39 39 38 40 41 42 42 43 44 45
47 47 46 45 46 45 43 43 43 41 40 41 41 40 40 40 39 39 40 40 40 39 38 39 39 35 27 24 24 24 21 20 20 19 19 19 19 19 19 18 17 18 18 20 21 22 22 23 24 24 24 23 23 24 25 25 25 24 19 12 5 3 8 13 17 23 27 29 30 33 34 36 39 39 38 38 38 37 37 38 39 40 42 44 45
48 47 46 45 45 44 43 43 42 41 40 40 40 40 39 38 38 38 39 39 39 38 37 38 36 31 23 20 20 21 19 18 18 18 19 19 19 19 19 18 18 18 19 20 21 21 21 23 23 22 21 21 21 22 23 24 24 24 22 18 11 5 3 9 13 18 24 28 30 32 34 36 37 39 39 39 39 39 38 37 37 37 38 40 41
49 48 47 46 44 42 42 42 42 40 40 39 39 39 39 37 37 38 38 38 37 36 36 36 33 27 21 18 18 18 17 15 16 17 18 19 19 18 18 18 18 19 19 20 20 20 21 21 21 20 19 19 19 20 21 23 23 24 23 22 18 13 7 2 8 12 17 23 25 28 33 36 37 39 41 41 40 41 40 39 38 38 38 38 38
49 48 46 45 44 42 41 42 41 40 39 38 37 38 38 37 37 37 37 36 35 33 34 33 28 22 20 18 17 16 16 16 16 17 18 18 18 18 18 18 18 18 19 19 18 19 19 19 20 19 17 17 17 18 19 21 22 23 24 23 22 19 14 7 2 5 10 14 17 21 27 32 33 36 42 45 43 40 40 40 39 37 37 37 37
49 47 45 44 43 42 41 40 40 39 38 37 36 36 37 38 37 37 36 35 33 32 32 30 25 21 19 19 18 18 18 18 18 18 19 19 19 18 18 19 18 18 18 18 18 17 17 18 18 18 16 16 16 16 17 19 21 22 24 24 24 22 20 15 9 4 2 7 10 15 21 25 25 29 38 46 46 40 39 40 39 38 39 40 39
46 45 44 43 42 41 40 39 38 37 37 36 35 36 37 37 37 37 35 34 32 30 29 28 26 23 20 20 20 20 20 20 20 20 20 20 19 19 19 19 18 18 18 18 18 17 17 17 17 17 16 16 16 16 17 18 19 21 22 24 25 24 23 22 18 13 7 1 4 9 15 21 24 27 33 40 43 42 41 41 39 41 46 44 40
43 43 43 41 40 40 38 37 36 36 36 35 35 36 36 36 36 36 34 32 31 30 28 29 28 26 23 21 21 22 22 22 22 21 20 20 20 20 20 19 18 18 18 18 18 18 17 17 17 17 17 17 17 17 17 18 19 20 21 22 23 24 24 24 23 20 15 9 3 3 8 15 21 25 29 33 37 40 43 45 43 43 47 46 40
41 41 41 40 39 38 37 35 34 35 35 34 35 35 35 35 35 34 32 31 31 31 30 29 28 26 25 23 22 23 23 23 22 20 19 19 19 20 20 20 18 18 18 18 18 18 18 17 17 18 19 19 19 19 19 19 19 20 20 21 21 23 23 24 24 24 21 17 12 6 0 6 13 19 24 28 31 34 38 43 45 45 48 49 46
39 39 39 38 37 37 36 35 34 34 34 34 35 34 34 33 33 32 31 31 31 30 29 27 25 23 23 22 22 22 22 22 21 20 19 20 20 21 21 20 20 19 19 18 18 19 19 19 18 19 19 20 21 21 21 21 20 20 21 21 21 21 22 22 23 23 23 21 19 15 10 4 2 9 15 21 25 27 29 34 38 42 45 48 49
38 37 36 35 34 35 34 34 34 34 34 34 34 32 31 31 31 30 30 30 29 29 28 26 23 21 22 22 21 21 21 22 22 21 21 21 21 22 21 21 21 21 20 20 19 19 20 20 20 19 20 20 21 22 22 22 22 22 22 22 22 22 22 22 22 22 22 22 21 20 18 14 9 4 5 10 15 20 23 26 30 35 37 40 44
36 35 34 33 33 33 33 33 33 33 33 33 32 31 30 29 29 29 28 28 28 27 26 24 22 22 23 24 23 22 22 23 22 22 22 22 22 22 22 21 21 21 22 21 20 20 20 21 21 20 20 20 21 22 23 23 23 23 23 23 23 23 23 23 23 23 22 22 22 21 20 19 16 13 9 6 6 9 13 18 22 27 30 32 35
35 35 34 33 33 32 33 33 33 32 32 32 31 30 29 29 29 28 27 27 27 26 25 25 26 26 27 27 26 24 24 23 23 23 23 22 21 22 21 21 20 21 21 22 21 20 21 21 22 22 21 21 21 22 23 23 24 24 24 24 23 23 23 24 24 24 23 23 23 22 21 20 19 18 16 14 11 9 7 7 10 15 19 23 27
34 33 33 33 33 33 33 33 33 32 31 31 30 30 29 29 28 28 28 28 28 28 27 28 28 28 28 27 26 26 25 24 24 23 23 22 22 22 22 21 20 20 21 22 22 21 21 21 22 23 23 22 22 22 23 24 24 24 25 25 25 25 24 24 24 24 25 24 24 24 23 22 21 19 18 17 16 15 14 12 10 9 9 11 15
33 32 32 33 33 33 33 33 32 32 31 30 29 29 29 29 28 28 28 29 29 29 29 29 29 29 29 28 27 26 26 25 25 24 24 24 23 23 23 23 22 22 22 23 23 23 23 23 23 23 24 24 24 23 24 25 25 25 25 26 26 26 26 26 25 25 25 25 25 25 25 25 24 22 21 20 19 18 17 16 15 14 12 11 11
33 32 32 33 33 33 33 32 32 31 30 29 28 28 28 28 28 28 28 28 28 28 29 29 29 29 28 27 27 26 26 25 25 25 25 25 25 25 24 25 25 24 24 24 25 25 25 25 25 25 25 25 25 25 24 25 26 26 27 27 27 27 27 28 27 27 26 26 26 26 26 26 26 25 25 23 22 21 20 19 19 18 17 15 14
34 33 33 32 32 32 31 31 31 30 30 29 28 28 28 28 27 28 28 28 27 27 27 28 28 27 27 26 25 25 25 25 25 25 25 25 26 26 26 26 26 26 26 26 26 27 27 27 27 26 26 26 26 26 26 26 26 27 28 28 28 28 28 28 29 29 29 28 28 27 27 27 27 27 27 26 25 25 24 23 22 22 21 20 18
34 33 33 33 32 31 31 30 30 30 30 29 29 29 29 29 29 29 29 29 29 28 27 27 27 27 26 26 26 25 25 25 25 25 25 25 26 26 26 26 27 27 27 28 28 28 28 28 28 28 28 27 27 27 28 28 28 28 29 29 30 30 30 30 30 30 31 31 30 30 29 29 29 28 28 27 27 27 27 27 26 25 25 24 23
34 34 34 33 32 31 30 30 30 30 31 31 31 31 31 30 30 30 30 30 30 29 28 27 27 27 27 27 27 27 27 26 26 26 26 26 27 27 27 27 28 28 28 29 29 29 30 30 30 30 30 30 29 29 29 30 30 30 31 31 32 32 32 32 32 32 32 32 32 32 32 31 31 30 30 29 29 29 28 29 29 28 28 28 27
34 34 34 33 32 31 31 31 31 32 32 31 31 31 31 30 30 30 30 30 30 30 29 29 28 28 28 28 28 28 29 29 29 29 28 28 29 29 29 29 30 30 30 31 31 31 31 31 31 32 32 32 31 31 31 31 32 32 32 33 34 34 34 34 34 33 33 33 33 33 33 32 32 31 31 31 30 30 30 30 30 30 30 30 30
35 35 34 33 32 32 31 31 31 31 32 31 31 31 30 30 30 29 29 30 30 30 30 30 30 30 30 30 30 30 30 31 31 31 31 31 31 31 31 32 32 32 32 32 32 32 32 32 32 32 32 32 32 32 31 31 32 32 32 33 33 34 34 34 34 34 34 33 33 33 33 33 33 32 32 31 31 31 31 31 31 31 31 31 31
35 35 34 33 33 32 32 31 31 31 31 30 30 30 29 29 29 29 29 29 30 30 31 31 32 32 32 32 32 32 32 32 32 33 33 33 33 33 33 32 33 33 33 33 33 33 33 33 33 32 32 31 31 30 30 29 29 29 30 30 31 31 32 32 33 33 33 32 32 32 32 32 32 32 32 32 31 31 31 31 31 31 32 32 32
36 35 35 34 33 32 31 31 30 30 29 29 29 29 28 28 28 29 29 30 30 31 32 32 33 33 34 34 34 33 33 33 33 32 32 32 32 32 32 32 32 31 31 31 31 31 30 30 30 29 29 29 29 28 28 27 27 27 27 27 28 28 29 29 30 31 31 31 31 31 31 31 31 31 31 32 31 31 31 31 31 31 32 32 32
Wind_Direction
304 306 308 308 308 307 306 306 306 307 308 310 311 311 311 311 310 309 308 307 307 308 310 312 314 314 314 314 313 312 311 309 307 305 303 301 300 300 299 297 295 293 292 291 291 289 287 284 282 279 277 274 271 270 268 266 261 255 254 254 253 253 252 249 245 238 236 239 235 233 236 237 238 238 236 236 238 242 245 244 246 251 247 245 249
303 305 306 307 307 306 304 304 305 306 308 309 310 311 312 312 311 309 309 308 308 309 310 312 313 314 314 313 312 311 310 308 307 305 303 302 301 301 300 299 296 294 293 292 291 289 286 284 281 279 278 275 272 270 267 265 261 256 252 251 251 251 250 249 248 242 239 242 239 234 234 235 236 237 237 236 234 238 243 241 241 250 249 243 245
301 303 305 306 306 305 304 304 304 305 307 309 311 312 313 312 311 310 310 310 310 311 312 313 314 314 314 313 312 311 309 308 307 305 304 303 303 302 301 300 298 296 295 293 291 288 286 283 282 280 278 276 273 272 269 264 260 255 251 249 248 247 247 248 249 246 241 241 240 235 234 235 236 237 237 235 232 232 237 241 242 247 247 242 243
301 303 304 306 307 306 305 304 303 305 307 310 312 313 313 313 312 313 312 312 312 313 313 314 314 314 314 313 312 311 309 308 307 306 305 305 304 303 301 300 300 298 296 293 290 288 286 283 282 281 279 276 273 271 270 265 259 255 251 248 246 245 245 247 248 246 242 237 236 237 238 236 235 235 234 232 230 230 235 244 248 246 244 241 241
302 304 304 306 307 306 305 303 303 306 309 312 314 314 314 314 314 314 314 313 313 313 314 315 315 315 315 314 313 311 309 308 307 306 305 304 303 302 301 301 301 299 296 293 291 289 288 286 284 283 281 278 273 270 270 267 259 254 250 246 245 243 243 246 246 246 244 238 235 240 242 237 234 234 233 231 230 231 234 242 248 248 245 241 239
303 304 305 306 307 306 304 303 304 307 310 313 315 315 315 315 315 314 314 313 313 314 315 316 316 316 316 315 314 312 310 308 307 306 304 303 302 301 301 301 300 298 296 294 293 293 292 290 288 287 285 281 275 269 269 267 258 253 249 245 242 239 239 244 245 243 244 240 236 238 240 237 235 235 235 233 231 232 234 239 244 245 244 241 239
303 305 306 307 307 306 304 303 305 308 312 314 316 316 315 315 314 313 313 313 314 315 316 317 317 316 316 315 314 313 311 308 307 306 304 303 303 302 302 302 300 298 296 296 297 297 296 294 293 292 289 284 278 271 269 266 258 251 248 244 240 236 235 241 244 242 243 242 237 236 237 237 237 236 236 235 233 232 234 238 242 243 242 240 239
303 305 306 307 307 305 304 305 307 310 313 315 316 315 314 313 313 313 314 314 315 316 317 317 317 316 315 315 315 314 311 309 308 308 306 305 305 305 303 301 298 297 297 298 300 300 299 297 297 296 292 286 280 274 270 266 258 250 246 243 239 236 234 237 242 242 240 239 236 234 234 237 237 235 235 235 233 233 234 238 242 242 240 239 237
302 304 306 306 306 305 305 306 308 311 314 315 315 314 313 313 313 314 314 315 316 317 317 317 316 316 315 315 315 314 312 309 309 309 308 307 307 305 302 300 298 297 298 300 302 302 302 301 300 298 294 288 283 279 273 267 259 250 245 243 239 236 235 236 240 243 238 235 234 233 232 235 235 233 235 235 233 233 234 237 240 240 239 238 235
301 304 305 306 306 306 306 307 309 312 314 314 314 313 313 314 314 315 315 316 317 317 317 316 316 316 315 315 315 314 312 310 309 309 308 308 307 304 301 299 298 298 299 301 303 304 305 305 303 300 297 290 285 282 275 266 260 251 245 242 239 237 236 236 239 242 237 232 232 232 231 233 234 234 236 236 233 232 233 236 239 238 237 236 234
301 304 304 305 306 306 306 308 310 312 313 313 313 313 314 315 315 315 315 316 316 317 316 316 316 316 316 316 315 313 312 310 308 308 309 308 306 302 299 298 298 299 301 302 304 307 308 309 306 301 298 293 285 279 273 265 260 254 246 241 239 238 238 236 237 239 237 232 231 232 232 233 235 237 236 234 231 231 233 235 237 237 236 236 234
301 303 304 305 305 305 306 309 311 312 313 313 313 314 315 315 315 315 315 316 316 316 315 316 316 317 316 316 315 313 312 310 308 309 310 307 304 300 297 296 298 300 302 303 306 309 310 312 311 304 298 294 284 273 267 263 260 256 249 243 239 238 238 238 236 237 237 232 229 231 233 233 236 239 237 233 230 231 233 234 235 236 237 236 233
301 302 304 304 305 306 308 310 310 311 312 313 313 314 314 314 314 314 315 316 315 315 315 315 316 316 315 314 312 310 310 309 308 310 311 308 304 301 297 297 300 302 305 306 308 310 311 313 315 309 300 296 288 271 259 258 258 255 250 244 240 237 238 239 237 237 238 234 229 230 233 233 234 238 239 235 231 230 233 233 233 235 237 236 233
301 302 304 304 305 307 309 309 310 311 312 312 313 314 314 313 313 313 314 314 314 314 314 315 316 316 314 312 309 306 305 304 304 307 309 308 305 302 299 299 302 305 307 308 309 310 313 314 316 314 305 298 294 277 257 253 254 251 247 244 241 239 240 240 238 237 237 235 232 232 233 233 233 236 240 238 232 230 231 232 233 234 236 237 235
300 301 303 304 306 308 308 309 310 311 311 311 312 313 313 312 312 313 313 313 313 314 315 315 316 315 312 310 306 302 300 301 301 302 304 306 305 302 301 302 304 307 309 310 309 310 313 314 316 317 311 302 298 289 266 252 250 249 246 243 243 242 242 243 242 240 237 235 233 233 233 233 233 235 241 239 233 229 229 230 232 233 234 236 236
298 300 303 304 305 307 308 309 309 309 310 311 311 312 311 311 311 312 312 312 313 314 315 315 315 314 311 308 304 301 299 300 299 298 301 304 304 304 305 306 306 308 310 312 311 311 313 315 316 318 317 308 302 300 283 257 249 248 245 242 241 243 243 244 245 244 239 235 233 233 233 233 232 235 240 239 232 227 227 227 230 233 233 234 237
297 300 302 303 305 306 307 307 307 308 309 309 310 311 310 309 310 311 312 312 313 314 314 315 315 314 311 308 305 302 300 299 298 298 300 304 306 307 309 309 309 311 313 313 312 313 316 318 319 320 320 315 307 305 296 270 252 249 247 242 239 240 241 242 242 243 239 235 233 233 233 234 233 234 240 240 232 227 225 225 229 233 232 233 238
297 300 301 303 304 304 304 305 305 306 307 308 309 309 308 308 309 310 311 312 313 314 315 315 315 314 311 307 304 302 299 297 297 299 300 301 304 308 310 311 312 315 315 313 312 315 319 321 321 322 323 321 315 309 303 281 259 251 248 244 240 239 239 238 238 237 237 235 234 234 235 236 236 236 240 243 236 229 226 225 227 231 231 231 236
296 299 300 301 301 301 302 303 304 305 307 308 308 308 308 308 309 310 311 311 312 314 315 315 315 313 310 306 303 301 298 296 297 300 301 301 303 308 312 312 313 314 315 313 313 316 320 322 324 325 327 327 321 314 307 289 266 255 249 245 242 241 239 236 234 233 233 233 234 235 235 237 238 239 242 245 240 232 229 227 228 231 231 229 232
294 295 296 298 300 301 302 303 304 306 307 308 307 307 307 307 308 310 310 311 312 313 314 315 314 311 308 305 302 300 296 294 296 300 302 303 304 307 310 311 312 313 315 315 315 317 322 326 329 330 331 330 324 317 310 296 274 258 251 246 243 242 240 236 233 231 230 231 232 233 234 235 237 239 241 241 238 232 229 228 229 233 233 229 230
292 293 297 300 301 302 303 303 305 306 307 307 307 307 307 307 308 310 310 311 312 313 314 314 313 310 306 304 303 300 295 292 295 298 300 301 302 303 305 308 311 314 316 317 317 320 325 330 332 333 333 331 327 321 315 302 283 263 252 247 247 246 240 235 233 231 229 229 230 230 232 234 236 237 238 238 234 230 228 228 230 233 233 228 228
292 295 299 301 302 303 304 305 306 306 306 306 307 307 307 308 309 310 310 311 312 313 313 314 312 309 306 304 304 301 295 292 294 296 296 297 301 303 305 306 308 312 317 318 319 322 326 329 333 335 335 334 330 326 319 307 291 270 251 244 249 251 243 233 231 230 228 228 229 228 229 231 233 233 234 233 230 227 226 228 230 232 230 226 226
295 298 300 301 302 303 304 306 306 306 306 307 307 307 308 309 309 309 310 311 312 313 313 313 312 309 307 306 304 301 296 292 292 292 292 296 302 303 303 304 306 310 316 318 319 322 325 328 332 335 336 336 333 330 325 315 300 280 252 234 238 250 248 236 228 228 228 227 228 228 227 228 229 229 228 227 226 224 225 228 230 231 229 226 227
297 298 299 300 300 301 303 305 305 305 305 306 307 307 308 308 309 309 310 311 313 314 313 313 313 310 307 306 304 300 296 292 290 289 290 294 298 299 300 303 306 310 315 317 318 321 324 327 330 333 336 337 336 334 332 326 314 292 256 226 222 240 248 240 229 225 224 225 226 227 227 227 228 228 227 224 223 223 224 226 229 229 228 228 229
298 298 298 299 300 301 304 306 304 303 304 305 306 306 306 307 308 308 310 312 313 312 312 313 314 311 308 305 303 299 294 289 289 293 295 294 295 296 300 304 307 310 313 316 318 321 325 326 329 333 336 339 340 338 336 333 325 308 268 234 225 228 234 232 228 222 219 222 225 225 225 227 228 228 228 226 224 223 224 225 227 227 227 228 230
296 297 299 300 301 302 304 304 302 301 302 304 304 304 305 305 306 308 310 312 312 310 310 312 313 311 307 302 298 295 290 286 288 293 297 296 294 296 300 305 308 310 313 316 319 322 326 326 328 332 336 339 341 341 339 337 333 324 294 248 236 230 211 208 217 222 219 219 223 224 223 224 224 224 225 225 224 225 225 226 228 229 229 230 231
295 297 298 299 300 301 302 301 300 299 299 301 302 302 302 303 304 306 308 309 308 307 309 310 311 309 303 294 287 285 284 286 287 289 293 294 293 295 299 302 306 309 313 317 320 323 326 325 326 331 335 337 339 341 340 341 342 339 328 278 241 236 216 195 202 218 223 221 222 224 221 219 220 221 221 221 222 223 224 226 229 231 230 231 232
296 297 298 299 299 300 300 300 299 298 299 300 300 300 301 302 304 305 306 306 306 307 308 308 308 305 298 287 280 278 279 282 285 287 291 294 294 296 298 300 304 309 315 319 321 324 325 324 324 329 332 334 336 339 341 344 348 348 342 325 231 233 229 204 198 212 225 224 223 224 221 217 217 219 220 220 220 221 222 225 229 230 230 231 232
297 297 298 298 298 299 299 299 298 298 298 298 298 299 300 301 303 305 305 305 306 307 307 306 305 302 294 281 274 274 275 278 281 284 289 293 296 299 301 304 307 311 317 322 323 323 323 322 322 324 329 333 335 337 342 346 349 352 350 340 270 225 233 217 202 207 218 225 225 225 222 218 216 218 219 219 220 222 223 225 229 231 231 231 232
296 296 296 297 297 298 299 298 297 297 297 296 296 297 298 300 302 303 304 304 305 306 305 304 304 301 291 276 269 269 271 275 279 283 288 293 298 301 303 307 311 313 318 322 322 321 320 320 321 323 327 332 334 336 341 347 349 353 355 350 337 245 232 227 213 205 210 219 225 226 224 220 216 216 217 217 218 221 224 225 227 230 230 231 231
296 295 295 295 296 297 297 295 295 295 294 294 294 295 297 299 300 301 302 303 305 305 304 304 304 299 285 269 263 265 268 272 277 284 290 294 297 300 302 306 309 312 317 320 320 320 320 319 321 325 327 331 335 337 341 346 349 353 357 357 356 352 250 231 226 213 207 210 218 223 224 222 218 216 216 216 217 221 222 222 223 225 226 227 227
294 294 294 294 294 295 293 292 292 292 291 291 292 293 296 298 298 300 302 303 304 305 305 304 302 293 277 263 260 263 266 269 276 286 293 296 297 299 301 304 306 309 313 317 318 319 320 320 321 325 328 331 336 340 343 345 349 352 355 359 1 2 3 274 237 228 215 208 208 211 216 218 219 218 218 216 217 219 221 220 220 221 223 223 223
293 292 292 292 292 292 290 289 290 289 289 289 291 292 293 295 296 299 301 303 303 304 305 304 297 283 270 263 261 262 263 265 274 286 294 297 298 300 301 302 303 305 309 313 316 317 319 320 322 325 329 332 336 341 344 346 349 351 352 357 0 2 5 7 309 239 226 214 205 201 203 208 214 218 216 212 209 210 212 215 216 217 220 222 222
292 291 290 290 290 289 288 287 287 287 287 288 289 290 291 293 296 299 301 301 302 304 305 301 291 277 269 266 264 262 262 265 275 286 293 297 299 301 301 300 301 303 305 309 314 316 318 320 322 325 329 333 338 343 346 347 349 351 352 353 356 359 3 6 9 6 256 217 204 199 198 199 205 211 210 206 204 204 206 209 210 210 212 215 217
291 289 288 288 287 285 284 284 284 284 285 287 288 288 289 292 295 298 299 299 300 303 304 298 288 277 271 268 266 264 266 271 277 286 293 298 299 298 297 297 299 303 305 309 313 316 316 317 319 321 325 330 336 341 344 346 348 349 350 351 353 356 359 1 4 9 9 342 196 197 198 197 199 202 201 199 199 202 206 209 209 209 210 211 209
290 288 286 285 283 283 282 282 282 282 284 286 286 287 288 290 293 295 296 297 299 301 303 300 290 278 269 266 266 265 267 271 277 283 290 296 296 295 294 295 298 301 305 307 309 310 312 312 313 315 318 323 329 334 337 340 342 344 346 347 349 351 354 356 358 2 5 7 16 185 197 199 201 203 202 198 197 200 205 210 212 212 214 218 214
288 286 284 283 282 282 282 282 281 282 284 285 285 286 287 289 292 293 292 293 295 297 300 301 293 278 267 264 264 264 265 268 272 278 285 289 291 291 292 294 296 298 300 301 302 303 306 307 308 309 311 315 320 325 328 332 334 337 339 342 342 344 348 349 351 354 357 359 3 11 110 197 201 204 206 204 201 200 202 207 211 213 216 222 223
287 285 283 282 280 280 280 280 281 283 284 285 285 286 287 288 290 290 289 289 291 294 296 297 293 283 275 271 267 263 263 265 269 273 277 280 285 289 290 292 294 294 294 295 297 300 302 303 303 304 305 307 312 316 320 324 327 328 331 334 336 336 339 341 343 345 347 350 353 358 2 3 215 207 208 207 206 205 204 205 208 211 214 218 222
286 285 283 281 279 278 278 280 282 283 285 285 285 285 286 287 287 288 289 289 291 293 293 292 288 283 281 279 274 269 268 268 269 271 274 277 283 286 287 289 290 290 291 292 294 295 297 297 298 298 299 300 303 308 312 316 320 322 324 327 329 329 330 332 334 335 337 339 342 345 350 353 353 323 237 217 210 208 208 208 208 209 211 213 216
288 287 285 283 280 279 280 280 282 283 284 284 284 284 285 286 286 287 288 290 291 292 291 287 284 282 283 285 286 283 279 275 273 273 275 278 281 283 283 285 286 286 287 288 288 288 290 291 292 293 294 295 296 299 303 307 311 315 317 319 321 323 324 324 325 326 328 329 331 333 336 339 342 343 333 307 260 226 215 213 212 212 213 214 215
289 288 286 284 283 282 282 282 283 283 283 283 284 284 284 285 285 285 287 289 290 290 287 284 283 285 288 290 292 291 286 282 279 277 277 279 280 280 280 281 281 281 282 282 282 283 283 284 286 288 290 291 292 294 296 298 301 305 308 311 313 315 316 317 318 318 320 321 322 323 325 326 327 330 332 330 324 312 288 253 230 222 220 220 220
288 286 284 283 282 282 282 282 282 282 283 283 285 285 284 284 284 285 286 288 289 288 286 284 284 286 288 289 290 289 287 284 280 277 276 276 276 277 278 279 279 279 279 281 282 283 282 282 284 285 286 289 290 290 291 293 295 297 300 302 304 306 308 309 310 311 312 313 314 314 315 317 317 317 318 320 320 319 316 311 300 281 258 243 234
286 283 281 282 282 282 283 283 282 283 284 284 285 286 286 286 287 287 287 287 287 285 284 284 285 286 287 288 287 286 283 281 278 276 275 275 275 275 277 278 279 279 280 281 282 284 284 284 284 284 285 286 286 287 288 289 290 292 293 295 297 299 300 302 303 304 304 306 307 307 308 308 309 310 309 309 309 309 309 308 307 303 298 290 279
283 280 279 280 281 282 283 284 284 284 285 285 286 287 289 289 290 289 289 288 287 286 285 285 286 287 288 288 287 285 283 281 279 278 276 276 276 276 277 278 279 280 281 281 281 282 283 283 283 283 283 284 284 285 285 286 287 288 289 290 291 293 294 295 297 298 299 299 300 301 301 301 302 302 303 302 302 301 300 299 298 297 296 293 290
281 281 280 281 282 283 283 284 285 285 285 285 286 287 288 289 289 290 289 289 289 288 287 287 287 289 290 290 289 288 286 285 283 282 280 279 279 278 278 279 279 280 281 281 281 281 282 282 282 282 282 283 284 285 285 285 286 286 287 288 289 289 290 291 292 293 294 295 295 295 295 295 295 295 296 296 296 296 295 293 292 291 290 288 286
282 282 283 283 283 283 283 284 285 284 284 285 286 286 287 288 289 289 289 289 289 289 289 289 289 289 290 291 290 289 288 287 286 285 284 283 282 281 280 281 281 281 282 283 283 283 283 284 284 284 283 283 284 285 285 286 286 286 287 288 288 288 288 288 289 289 290 291 292 292 291 291 291 290 290 290 290 290 290 289 288 288 286 285 284
284 283 283 283 283 282 283 283 284 284 285 286 286 286 286 287 287 288 288 288 289 290 290 290 289 289 289 289 289 289 289 289 288 287 286 285 284 284 283 283 282 282 283 283 283 283 284 284 285 285 285 286 286 285 286 286 286 286 286 287 287 288 288 287 287 287 287 288 288 289 289 288 288 287 287 286 285 285 284 284 284 284 283 283 282
284 284 283 282 282 281 282 283 285 285 286 286 286 286 286 285 285 285 287 288 289 289 289 289 289 288 287 287 287 287 288 288 288 287 287 286 285 284 284 284 283 283 283 283 283 283 283 284 284 285 285 286 286 285 285 285 285 285 285 285 285 286 286 286 286 286 285 285 285 285 285 285 285 284 284 283 282 282 281 280 280 280 279 279 279
283 282 282 281 281 281 282 283 285 286 286 287 286 285 284 283 283 283 284 286 286 287 287 288 288 288 288 287 287 286 286 285 285 285 285 285 284 284 284 284 284 284 284 284 284 285 285 285 285 285 285 285 285 285 284 284 283 283 283 283 283 283 284 284 285 284 284 283 283 282 282 282 282 282 281 281 280 279 278 278 277 276 276 275 275
281 281 280 280 281 282 283 284 285 286 286 285 284 283 282 283 283 284 284 284 285 285 286 286 286 287 287 287 287 286 285 285 284 283 283 283 284 284 284 285 285 285 285 285 285 285 285 285 285 285 286 286 286 286 286 285 285 284 283 283 282 282 282 282 283 283 283 283 282 282 281 280 280 280 280 280 279 278 277 276 275 275 274 273 273
279 280 280 280 281 281 283 284 285 285 284 283 282 282 282 284 285 285 285 285 285 286 287 287 287 287 288 288 287 287 287 286 285 284 284 283 283 284 284 284 285 285 285 285 284 284 284 285 285 286 286 287 288 288 289 288 288 287 286 285 284 283 283 282 282 282 282 281 281 281 280 280 279 278 278 278 278 278 277 276 275 274 273 273 272
Height
5883 5881 5879 5877 5875 5873 5872 5870 5868 5866 5864 5862 5860 5858 5856 5853 5851 5849 5847 5844 5842 5840 5837 5835 5833 5830 5827 5824 5821 5818 5814 5812 5809 5808 5806 5803 5800 5798 5796 5794 5791 5789 5786 5784 5781 5779 5778 5776 5774 5772 5771 5770 5770 5769 5769 5769 5770 5772 5772 5773 5774 5776 5778 5778 5781 5789 5791 5789 5790 5794 5795 5797 5799 5801 5804 5808 5812 5815 5817 5819 5821 5824 5827 5830 5833
5879 5877 5875 5873 5872 5870 5868 5866 5865 5863 5861 5859 5856 5854 5852 5850 5847 5844 5842 5840 5838 5835 5833 5831 5828 5826 5823 5819 5816 5813 5810 5806 5804 5802 5799 5796 5794 5791 5789 5787 5785 5782 5780 5777 5775 5772 5770 5768 5767 5765 5763 5763 5762 5761 5761 5761 5762 5763 5764 5765 5767 5769 5772 5772 5774 5780 5786 5784 5784 5787 5789 5790 5793 5795 5798 5803 5808 5810 5811 5813 5815 5819 5822 5825 5827
5876 5874 5871 5870 5868 5866 5864 5863 5861 5859 5857 5855 5853 5850 5848 5846 5843 5841 5838 5835 5833 5831 5828 5826 5823 5821 5818 5814 5811 5808 5805 5801 5798 5796 5793 5790 5787 5785 5782 5780 5778 5776 5773 5770 5768 5765 5763 5761 5760 5758 5756 5755 5755 5754 5753 5753 5753 5754 5756 5757 5759 5762 5765 5766 5767 5772 5779 5780 5778 5781 5783 5785 5787 5790 5793 5798 5802 5803 5805 5807 5810 5813 5817 5819 5822
5872 5870 5868 5866 5864 5862 5860 5859 5857 5855 5853 5851 5849 5846 5844 5841 5839 5836 5833 5830 5828 5826 5823 5821 5818 5815 5812 5809 5806 5802 5799 5796 5793 5790 5787 5784 5781 5778 5775 5773 5771 5769 5767 5764 5762 5759 5757 5755 5753 5751 5750 5749 5748 5747 5746 5745 5745 5746 5747 5749 5752 5756 5758 5760 5761 5764 5769 5774 5774 5775 5778 5780 5782 5785 5787 5792 5795 5797 5800 5803 5804 5808 5811 5814 5817
5867 5865 5864 5862 5860 5858 5857 5855 5853 5851 5849 5847 5845 5842 5839 5836 5834 5831 5829 5826 5823 5820 5818 5815 5812 5810 5807 5804 5801 5797 5793 5790 5788 5785 5781 5779 5776 5772 5769 5767 5765 5762 5761 5758 5756 5753 5751 5749 5746 5744 5743 5742 5741 5740 5739 5738 5738 5738 5740 5742 5744 5749 5751 5752 5755 5758 5761 5766 5769 5770 5772 5774 5776 5779 5781 5785 5789 5792 5796 5798 5800 5803 5806 5809 5813
5863 5861 5859 5858 5856 5855 5853 5851 5849 5847 5845 5843 5840 5837 5834 5832 5829 5826 5824 5821 5818 5815 5813 5810 5807 5804 5801 5799 5796 5793 5789 5785 5783 5780 5776 5773 5770 5768 5764 5761 5759 5757 5755 5752 5750 5748 5745 5742 5740 5738 5736 5735 5733 5733 5732 5731 5730 5730 5732 5734 5737 5740 5744 5744 5746 5750 5754 5759 5763 5765 5767 5769 5770 5773 5776 5779 5783 5786 5790 5793 5797 5800 5801 5805 5809
5859 5857 5855 5853 5852 5850 5849 5847 5845 5843 5841 5838 5836 5833 5830 5827 5825 5822 5819 5816 5813 5810 5807 5805 5802 5798 5796 5794 5791 5788 5784 5780 5777 5774 5770 5767 5764 5761 5758 5756 5754 5752 5749 5747 5745 5743 5739 5736 5734 5732 5729 5728 5726 5725 5725 5724 5723 5723 5724 5727 5729 5732 5736 5737 5738 5743 5747 5751 5756 5759 5762 5764 5765 5767 5770 5773 5776 5780 5784 5788 5792 5796 5798 5801 5804
5854 5853 5851 5849 5848 5846 5844 5843 5841 5838 5836 5834 5831 5828 5825 5823 5820 5817 5814 5811 5808 5805 5802 5799 5796 5793 5790 5788 5786 5782 5778 5774 5771 5767 5764 5761 5758 5755 5753 5751 5749 5747 5745 5742 5740 5738 5735 5731 5728 5725 5723 5721 5719 5718 5718 5717 5716 5717 5718 5720 5722 5725 5727 5730 5732 5736 5739 5743 5748 5752 5755 5757 5759 5761 5764 5767 5771 5775 5779 5783 5787 5790 5793 5795 5798
5850 5849 5848 5846 5844 5842 5840 5838 5836 5834 5832 5829 5826 5823 5821 5818 5815 5812 5809 5806 5803 5800 5797 5794 5791 5788 5785 5782 5780 5777 5774 5770 5765 5762 5759 5756 5753 5750 5748 5746 5744 5743 5741 5738 5736 5733 5730 5726 5723 5720 5718 5716 5714 5712 5711 5710 5710 5711 5712 5714 5716 5718 5720 5723 5725 5728 5731 5736 5741 5745 5747 5751 5754 5757 5758 5762 5766 5771 5775 5778 5780 5784 5787 5790 5792
5846 5845 5844 5842 5840 5838 5836 5834 5832 5830 5827 5824 5822 5819 5816 5813 5810 5807 5804 5801 5798 5795 5792 5789 5786 5782 5779 5777 5774 5772 5769 5766 5761 5757 5754 5752 5749 5746 5744 5742 5740 5739 5737 5735 5732 5729 5726 5722 5719 5716 5713 5711 5708 5707 5705 5705 5705 5706 5707 5708 5710 5711 5714 5717 5719 5722 5724 5728 5733 5737 5740 5745 5749 5751 5753 5756 5761 5766 5769 5772 5775 5780 5783 5785 5788
5842 5841 5840 5838 5836 5834 5832 5830 5827 5825 5822 5820 5817 5814 5810 5808 5805 5802 5799 5796 5793 5790 5787 5784 5781 5777 5774 5771 5768 5765 5763 5760 5756 5753 5750 5747 5745 5742 5740 5737 5736 5735 5733 5731 5728 5725 5722 5719 5714 5711 5709 5706 5704 5702 5700 5700 5700 5700 5701 5703 5704 5706 5708 5710 5714 5717 5719 5721 5726 5730 5734 5738 5742 5745 5747 5751 5755 5760 5764 5767 5770 5774 5777 5781 5785
5838 5837 5836 5834 5832 5830 5828 5825 5823 5820 5817 5815 5812 5808 5805 5802 5799 5796 5794 5791 5788 5785 5782 5779 5776 5773 5770 5767 5763 5760 5757 5754 5751 5749 5746 5743 5741 5739 5736 5734 5732 5731 5729 5727 5725 5722 5719 5716 5711 5707 5704 5702 5699 5697 5696 5696 5695 5696 5696 5698 5698 5700 5702 5704 5708 5711 5714 5716 5720 5723 5728 5732 5736 5739 5742 5746 5751 5755 5758 5761 5764 5768 5772 5777 5781
5835 5833 5832 5830 5828 5826 5823 5821 5818 5815 5812 5810 5807 5803 5800 5797 5794 5791 5789 5786 5783 5780 5777 5774 5771 5769 5766 5762 5758 5755 5753 5749 5745 5744 5742 5739 5737 5735 5732 5730 5728 5727 5725 5723 5720 5717 5714 5711 5708 5704 5701 5697 5695 5693 5692 5691 5691 5691 5692 5693 5693 5695 5697 5699 5702 5706 5709 5711 5714 5718 5722 5726 5730 5734 5738 5741 5745 5749 5752 5755 5759 5763 5767 5771 5775
5831 5829 5828 5826 5823 5821 5818 5816 5813 5810 5807 5805 5802 5798 5795 5792 5789 5786 5783 5780 5778 5775 5772 5769 5767 5764 5761 5757 5753 5750 5748 5745 5741 5739 5738 5735 5733 5731 5729 5727 5725 5723 5721 5719 5716 5713 5710 5707 5704 5701 5697 5693 5691 5689 5688 5687 5687 5687 5687 5688 5689 5691 5693 5694 5697 5700 5703 5707 5710 5714 5718 5720 5724 5730 5733 5736 5739 5743 5746 5750 5754 5757 5761 5765 5768
5826 5825 5824 5821 5818 5816 5814 5811 5808 5805 5802 5800 5797 5794 5791 5787 5784 5781 5779 5775 5773 5770 5767 5764 5761 5759 5756 5752 5748 5745 5742 5740 5737 5735 5733 5731 5729 5728 5726 5724 5722 5720 5717 5715 5712 5710 5707 5704 5700 5697 5693 5690 5686 5684 5683 5682 5682 5682 5682 5683 5685 5687 5688 5689 5691 5694 5698 5701 5705 5710 5714 5716 5720 5725 5728 5730 5733 5737 5742 5745 5749 5751 5755 5758 5761
5822 5821 5819 5816 5814 5811 5809 5806 5803 5801 5798 5795 5792 5789 5786 5782 5779 5777 5774 5770 5767 5765 5761 5758 5755 5752 5749 5746 5743 5740 5737 5735 5733 5731 5729 5727 5726 5724 5722 5720 5718 5716 5714 5711 5709 5706 5704 5700 5697 5693 5690 5686 5683 5680 5678 5677 5677 5677 5678 5679 5680 5682 5684 5685 5687 5690 5693 5696 5700 5705 5709 5712 5716 5721 5723 5724 5727 5732 5736 5740 5743 5745 5748 5752 5756
5818 5816 5815 5812 5809 5806 5804 5802 5799 5796 5793 5790 5787 5784 5781 5777 5774 5772 5769 5765 5762 5759 5756 5753 5750 5747 5744 5740 5737 5735 5733 5730 5728 5727 5725 5724 5722 5721 5719 5716 5714 5712 5710 5708 5706 5703 5700 5696 5692 5689 5686 5682 5679 5676 5674 5673 5672 5673 5674 5674 5676 5677 5679 5681 5683 5685 5688 5692 5696 5700 5705 5708 5712 5716 5718 5719 5723 5726 5729 5733 5737 5739 5743 5747 5751
5813 5812 5810 5808 5805 5802 5800 5797 5795 5792 5789 5786 5783 5780 5776 5773 5769 5767 5764 5761 5757 5754 5751 5748 5745 5742 5739 5735 5732 5730 5728 5726 5725 5724 5723 5722 5720 5718 5716 5714 5712 5709 5707 5705 5703 5700 5697 5693 5689 5685 5682 5678 5676 5673 5670 5668 5667 5668 5669 5670 5671 5673 5674 5677 5679 5682 5684 5688 5692 5696 5700 5703 5707 5710 5713 5715 5719 5722 5725 5729 5732 5733 5737 5742 5745
5808 5807 5805 5803 5801 5798 5795 5793 5790 5787 5784 5781 5778 5775 5772 5768 5765 5762 5759 5756 5753 5750 5747 5743 5740 5737 5734 5730 5727 5725 5725 5723 5722 5721 5720 5719 5717 5715 5712 5711 5710 5707 5704 5702 5700 5697 5695 5691 5686 5682 5678 5675 5672 5669 5667 5664 5663 5663 5665 5666 5667 5668 5670 5672 5675 5678 5681 5684 5688 5692 5696 5699 5702 5705 5709 5712 5715 5719 5722 5725 5727 5728 5732 5737 5740
5804 5802 5800 5799 5796 5793 5790 5788 5785 5782 5779 5776 5773 5770 5767 5764 5760 5758 5755 5752 5749 5746 5742 5739 5736 5733 5730 5726 5723 5722 5721 5719 5718 5718 5717 5715 5714 5712 5710 5708 5707 5704 5701 5699 5697 5695 5692 5688 5684 5680 5676 5673 5670 5667 5664 5661 5659 5659 5660 5662 5663 5664 5665 5668 5671 5674 5677 5681 5684 5687 5690 5694 5697 5700 5703 5707 5711 5715 5718 5720 5722 5724 5728 5733 5736
5800 5798 5795 5793 5790 5787 5785 5782 5779 5776 5774 5770 5767 5765 5762 5759 5756 5754 5750 5747 5744 5741 5738 5735 5732 5729 5725 5722 5720 5718 5717 5715 5714 5714 5714 5712 5711 5710 5708 5706 5704 5701 5699 5697 5694 5692 5689 5685 5682 5678 5675 5671 5668 5664 5661 5658 5656 5655 5656 5658 5659 5660 5662 5664 5667 5670 5673 5676 5679 5682 5685 5688 5691 5695 5698 5701 5705 5709 5713 5715 5718 5720 5724 5729 5732
5794 5792 5790 5787 5784 5782 5779 5776 5773 5771 5768 5765 5762 5759 5756 5754 5751 5749 5746 5743 5739 5737 5734 5731 5727 5724 5721 5718 5716 5714 5713 5712 5711 5711 5710 5709 5708 5707 5705 5703 5701 5699 5697 5694 5691 5689 5686 5683 5681 5677 5673 5669 5665 5662 5659 5656 5654 5653 5653 5654 5656 5657 5658 5661 5664 5666 5669 5672 5675 5678 5680 5683 5686 5689 5693 5697 5701 5704 5707 5710 5713 5716 5719 5723 5727
5788 5786 5784 5782 5779 5776 5773 5770 5768 5765 5762 5759 5757 5754 5751 5749 5747 5744 5742 5738 5735 5732 5729 5726 5723 5720 5716 5714 5712 5710 5709 5708 5708 5707 5706 5706 5705 5704 5702 5700 5698 5696 5694 5692 5689 5686 5683 5681 5678 5676 5672 5668 5664 5660 5657 5654 5652 5650 5650 5651 5653 5654 5654 5657 5659 5662 5665 5668 5670 5673 5675 5678 5681 5684 5688 5692 5695 5699 5702 5705 5708 5712 5715 5719 5722
5782 5781 5779 5777 5774 5771 5768 5765 5763 5760 5757 5754 5752 5749 5746 5744 5742 5740 5737 5734 5731 5728 5724 5721 5719 5716 5713 5710 5708 5707 5706 5705 5704 5703 5703 5703 5702 5700 5699 5697 5695 5694 5692 5689 5687 5684 5681 5679 5676 5674 5671 5667 5663 5659 5656 5653 5650 5649 5648 5648 5650 5651 5651 5652 5655 5657 5660 5663 5665 5668 5671 5674 5677 5680 5683 5687 5690 5693 5696 5700 5703 5707 5711 5714 5717
5776 5774 5773 5771 5768 5766 5763 5760 5757 5755 5752 5749 5747 5744 5742 5740 5738 5735 5732 5729 5727 5723 5720 5717 5715 5713 5711 5708 5705 5704 5702 5701 5700 5700 5700 5700 5698 5697 5696 5694 5692 5691 5689 5687 5684 5682 5680 5677 5674 5672 5669 5666 5662 5658 5655 5652 5649 5647 5646 5646 5647 5648 5647 5648 5650 5653 5656 5658 5660 5663 5667 5670 5673 5677 5679 5683 5686 5688 5692 5695 5698 5702 5706 5709 5711
5771 5768 5766 5764 5762 5760 5758 5755 5752 5750 5747 5745 5742 5739 5737 5736 5733 5731 5728 5725 5722 5718 5715 5713 5712 5710 5708 5705 5702 5700 5698 5697 5697 5697 5697 5696 5695 5694 5692 5691 5689 5688 5686 5684 5682 5680 5678 5675 5673 5670 5668 5664 5661 5658 5654 5651 5649 5646 5644 5643 5644 5645 5644 5644 5646 5649 5652 5655 5657 5660 5663 5667 5670 5673 5675 5678 5682 5685 5688 5691 5694 5698 5701 5705 5708
5765 5763 5760 5758 5756 5755 5752 5750 5748 5745 5742 5740 5738 5735 5733 5731 5729 5727 5724 5721 5718 5715 5712 5710 5708 5706 5705 5702 5700 5697 5695 5695 5695 5694 5694 5694 5692 5691 5690 5688 5687 5685 5684 5682 5680 5678 5676 5673 5671 5669 5666 5663 5660 5657 5654 5651 5648 5646 5643 5641 5641 5642 5641 5641 5644 5647 5649 5651 5653 5656 5659 5663 5666 5669 5671 5674 5678 5681 5685 5688 5690 5693 5697 5700 5703
5758 5756 5755 5752 5750 5748 5746 5744 5742 5740 5737 5734 5733 5731 5728 5726 5724 5722 5720 5717 5714 5712 5708 5706 5704 5701 5700 5698 5696 5694 5693 5692 5692 5691 5691 5690 5689 5688 5687 5686 5684 5683 5681 5680 5678 5676 5674 5672 5669 5667 5665 5663 5660 5657 5653 5650 5647 5645 5643 5640 5639 5639 5639 5639 5641 5644 5646 5648 5650 5652 5655 5659 5662 5664 5667 5671 5674 5678 5680 5683 5685 5688 5692 5695 5696
5753 5750 5749 5747 5744 5742 5740 5738 5736 5734 5732 5729 5727 5725 5724 5721 5718 5717 5715 5712 5710 5707 5704 5702 5699 5697 5695 5693 5692 5690 5690 5690 5689 5689 5689 5688 5686 5685 5684 5683 5681 5680 5679 5678 5676 5674 5672 5670 5668 5666 5664 5661 5659 5656 5653 5650 5647 5645 5643 5640 5638 5637 5637 5637 5639 5641 5643 5645 5647 5648 5651 5654 5657 5660 5663 5666 5670 5673 5675 5678 5680 5683 5687 5689 5690
5748 5745 5743 5741 5738 5736 5734 5732 5730 5728 5727 5724 5721 5720 5719 5717 5714 5711 5709 5707 5705 5702 5700 5697 5695 5692 5690 5689 5688 5687 5687 5687 5687 5686 5686 5685 5684 5682 5681 5680 5679 5678 5677 5676 5674 5672 5670 5668 5666 5664 5662 5660 5658 5655 5652 5650 5647 5645 5643 5641 5638 5637 5636 5637 5637 5638 5639 5642 5644 5646 5648 5651 5654 5657 5659 5662 5665 5668 5671 5673 5676 5678 5680 5682 5684
5741 5739 5737 5735 5733 5731 5728 5726 5724 5723 5721 5719 5716 5714 5713 5712 5709 5707 5704 5702 5700 5697 5695 5692 5690 5688 5686 5685 5684 5684 5684 5684 5684 5683 5683 5682 5681 5680 5678 5677 5676 5675 5674 5673 5672 5670 5668 5667 5665 5663 5661 5659 5657 5655 5652 5650 5648 5646 5643 5641 5638 5637 5636 5636 5636 5636 5637 5639 5642 5643 5645 5648 5651 5654 5656 5659 5661 5663 5665 5668 5671 5672 5674 5676 5679
5735 5733 5731 5729 5727 5726 5722 5719 5718 5717 5716 5714 5712 5709 5708 5707 5705 5702 5700 5697 5695 5693 5690 5687 5685 5684 5683 5682 5682 5681 5681 5682 5681 5681 5680 5679 5678 5677 5676 5675 5674 5673 5672 5671 5670 5668 5666 5665 5663 5661 5660 5658 5656 5654 5651 5649 5647 5646 5644 5641 5639 5637 5635 5635 5634 5634 5635 5637 5639 5641 5643 5645 5648 5650 5653 5655 5657 5659 5661 5663 5665 5667 5669 5671 5675
5729 5727 5724 5722 5721 5720 5717 5714 5713 5711 5710 5709 5707 5705 5703 5701 5700 5698 5695 5693 5691 5689 5686 5683 5681 5680 5680 5679 5679 5679 5679 5679 5679 5678 5677 5676 5675 5675 5674 5673 5672 5671 5670 5669 5668 5666 5665 5663 5661 5660 5658 5657 5655 5653 5651 5649 5647 5646 5644 5642 5640 5637 5636 5634 5634 5634 5635 5636 5637 5638 5639 5641 5644 5646 5648 5650 5652 5654 5657 5659 5661 5663 5665 5667 5670
5722 5720 5718 5716 5714 5713 5711 5709 5707 5706 5705 5703 5702 5700 5698 5696 5694 5693 5691 5688 5686 5685 5682 5680 5678 5677 5677 5677 5677 5677 5676 5676 5676 5675 5675 5674 5673 5672 5671 5670 5670 5669 5668 5667 5666 5665 5663 5661 5660 5658 5657 5656 5654 5653 5651 5649 5647 5646 5644 5642 5641 5639 5636 5635 5634 5633 5634 5634 5635 5636 5637 5638 5640 5642 5644 5645 5648 5651 5654 5655 5657 5660 5662 5662 5664
5715 5713 5711 5709 5707 5705 5704 5703 5702 5701 5700 5698 5697 5695 5693 5691 5689 5688 5686 5684 5682 5681 5679 5677 5675 5675 5674 5673 5673 5673 5673 5673 5673 5672 5672 5671 5670 5669 5669 5668 5667 5666 5665 5664 5663 5663 5661 5660 5658 5657 5656 5655 5653 5652 5651 5649 5648 5646 5644 5643 5641 5640 5638 5636 5635 5634 5633 5633 5633 5634 5635 5636 5638 5640 5641 5642 5643 5646 5649 5652 5653 5655 5658 5659 5660
5708 5706 5704 5703 5701 5699 5698 5697 5697 5696 5695 5693 5692 5690 5688 5686 5685 5683 5681 5679 5677 5676 5676 5674 5672 5671 5670 5670 5670 5670 5669 5669 5669 5669 5669 5668 5667 5667 5666 5665 5665 5664 5663 5662 5661 5660 5660 5659 5657 5656 5654 5653 5652 5651 5650 5648 5647 5646 5645 5643 5642 5640 5639 5637 5636 5635 5634 5633 5632 5632 5633 5634 5636 5638 5639 5640 5640 5642 5645 5648 5650 5652 5654 5656 5658
5701 5699 5698 5697 5696 5693 5692 5692 5691 5690 5689 5688 5687 5685 5683 5682 5680 5678 5677 5675 5674 5672 5671 5670 5668 5667 5666 5666 5666 5666 5666 5666 5666 5666 5665 5665 5665 5664 5663 5663 5662 5661 5660 5659 5659 5658 5657 5657 5655 5654 5653 5651 5650 5649 5648 5647 5646 5645 5644 5643 5642 5641 5640 5638 5637 5636 5635 5634 5633 5633 5633 5633 5634 5635 5637 5638 5639 5640 5642 5644 5647 5649 5651 5652 5655
5695 5693 5692 5691 5690 5689 5687 5687 5686 5685 5684 5683 5681 5680 5679 5677 5675 5674 5673 5672 5671 5669 5668 5666 5665 5664 5663 5663 5663 5662 5662 5662 5662 5662 5662 5662 5662 5661 5660 5659 5659 5658 5658 5657 5656 5655 5654 5654 5653 5652 5651 5650 5649 5648 5647 5646 5645 5644 5643 5643 5642 5641 5640 5639 5638 5637 5636 5636 5635 5634 5633 5633 5633 5633 5634 5635 5636 5637 5639 5641 5643 5645 5648 5649 5651
5689 5688 5687 5686 5685 5684 5683 5682 5680 5679 5679 5677 5676 5675 5674 5673 5671 5670 5669 5668 5667 5665 5664 5663 5662 5661 5661 5660 5660 5659 5659 5659 5658 5658 5658 5658 5658 5657 5657 5656 5656 5655 5654 5653 5653 5652 5652 5651 5651 5650 5649 5648 5647 5646 5645 5644 5643 5642 5642 5641 5641 5640 5640 5639 5638 5638 5637 5636 5636 5635 5635 5634 5634 5633 5633 5634 5634 5635 5636 5637 5639 5641 5643 5645 5647
5683 5682 5682 5681 5680 5679 5678 5677 5675 5674 5673 5672 5671 5670 5669 5668 5667 5665 5665 5664 5663 5662 5661 5660 5659 5658 5657 5657 5656 5656 5656 5655 5655 5654 5654 5654 5654 5654 5653 5653 5652 5651 5651 5650 5650 5649 5649 5648 5648 5647 5647 5646 5645 5644 5643 5642 5641 5641 5640 5639 5639 5639 5638 5638 5638 5637 5637 5636 5636 5635 5635 5635 5635 5634 5634 5634 5634 5634 5634 5635 5637 5638 5640 5641 5643
5678 5677 5677 5676 5676 5674 5673 5672 5671 5670 5669 5667 5666 5665 5664 5663 5662 5661 5660 5660 5659 5658 5657 5656 5655 5654 5653 5653 5652 5652 5652 5651 5651 5651 5650 5650 5650 5650 5649 5649 5649 5648 5647 5647 5646 5646 5645 5645 5645 5644 5644 5643 5643 5642 5641 5640 5640 5639 5638 5638 5637 5637 5637 5637 5636 5636 5636 5635 5635 5634 5634 5634 5634 5635 5635 5635 5635 5635 5635 5635 5636 5636 5637 5638 5639
5674 5673 5673 5672 5671 5670 5669 5667 5666 5665 5664 5663 5662 5661 5659 5658 5657 5656 5656 5655 5655 5654 5653 5652 5651 5651 5650 5649 5649 5648 5648 5648 5647 5647 5646 5646 5646 5646 5645 5645 5644 5644 5644 5643 5642 5642 5642 5641 5641 5641 5640 5640 5640 5639 5639 5638 5638 5637 5636 5636 5635 5635 5635 5635 5634 5634 5634 5634 5633 5633 5633 5633 5633 5634 5634 5635 5635 5635 5635 5635 5636 5636 5636 5636 5637
5670 5669 5668 5667 5666 5665 5664 5663 5662 5661 5660 5659 5658 5656 5655 5654 5653 5652 5651 5651 5650 5650 5649 5648 5647 5646 5646 5645 5645 5645 5644 5644 5643 5643 5642 5642 5641 5641 5641 5640 5640 5640 5639 5639 5638 5638 5638 5637 5637 5637 5637 5637 5636 5636 5636 5635 5635 5635 5634 5634 5633 5633 5632 5632 5632 5632 5631 5631 5631 5631 5631 5631 5631 5631 5632 5633 5633 5634 5634 5634 5635 5635 5635 5636 5636
5665 5665 5664 5663 5662 5661 5660 5659 5658 5657 5656 5655 5654 5653 5651 5650 5649 5648 5647 5646 5646 5645 5645 5644 5643 5643 5642 5641 5641 5640 5640 5639 5639 5639 5638 5638 5637 5637 5636 5636 5635 5635 5635 5635 5634 5634 5633 5633 5633 5633 5633 5633 5632 5632 5632 5632 5631 5631 5631 5631 5631 5630 5630 5629 5629 5629 5629 5628 5628 5629 5629 5629 5629 5629 5629 5630 5630 5631 5632 5632 5632 5633 5634 5635 5635
5661 5660 5659 5658 5658 5657 5656 5655 5654 5653 5652 5651 5651 5649 5648 5647 5645 5644 5643 5642 5642 5641 5641 5640 5639 5639 5638 5637 5636 5636 5636 5635 5635 5634 5634 5633 5633 5632 5632 5632 5631 5631 5630 5630 5630 5629 5629 5629 5629 5629 5629 5628 5628 5627 5627 5627 5627 5627 5627 5627 5627 5627 5627 5626 5626 5626 5625 5625 5625 5625 5625 5626 5626 5626 5626 5627 5627 5628 5628 5629 5629 5630 5631 5632 5633
5657 5656 5655 5654 5653 5653 5652 5651 5650 5649 5648 5647 5646 5645 5644 5643 5642 5640 5639 5638 5638 5637 5637 5636 5635 5634 5634 5633 5632 5632 5632 5631 5631 5630 5630 5630 5629 5629 5628 5628 5627 5627 5626 5626 5625 5625 5624 5624 5624 5624 5624 5624 5624 5623 5623 5623 5623 5623 5622 5622 5622 5622 5623 5623 5622 5622 5622 5621 5621 5621 5621 5621 5622 5622 5623 5624 5624 5624 5625 5625 5626 5627 5627 5628 5629
5653 5651 5650 5650 5649 5648 5647 5646 5646 5644 5643 5643 5642 5641 5640 5639 5638 5636 5635 5634 5634 5633 5632 5632 5631 5630 5630 5629 5628 5628 5627 5627 5627 5626 5626 5626 5625 5624 5624 5624 5623 5622 5622 5621 5621 5621 5620 5620 5619 5619 5619 5619 5619 5618 5618 5618 5618 5618 5618 5617 5617 5617 5617 5618 5618 5618 5618 5617 5617 5617 5617 5617 5617 5617 5618 5619 5620 5620 5621 5621 5622 5622 5623 5624 5625
5648 5646 5645 5645 5644 5643 5642 5642 5641 5640 5639 5638 5638 5636 5635 5634 5634 5632 5631 5631 5630 5629 5628 5627 5627 5626 5626 5625 5625 5624 5623 5623 5623 5622 5622 5621 5621 5620 5620 5619 5619 5618 5618 5617 5617 5616 5616 5615 5615 5614 5614 5613 5613 5613 5613 5613 5612 5612 5612 5612 5612 5612 5612 5612 5612 5612 5613 5613 5613 5612 5612 5612 5612 5613 5613 5613 5614 5615 5616 5617 5617 5618 5618 5619 5620
5642 5641 5640 5640 5639 5638 5638 5637 5636 5635 5634 5634 5633 5632 5631 5630 5629 5628 5628 5627 5626 5625 5624 5623 5622 5622 5621 5621 5621 5620 5620 5619 5619 5618 5617 5617 5616 5616 5615 5615 5614 5614 5613 5612 5612 5611 5611 5610 5610 5609 5609 5608 5608 5608 5607 5607 5607 5607 5607 5607 5607 5607 5606 5606 5606 5606 5607 5607 5608 5608 5608 5608 5608 5608 5608 5608 5609 5609 5610 5611 5612 5613 5614 5614 5615
5637 5636 5635 5635 5634 5633 5633 5632 5631 5631 5630 5629 5628 5627 5626 5626 5625 5624 5623 5623 5622 5621 5620 5619 5618 5618 5617 5616 5616 5615 5615 5614 5614 5613 5613 5612 5612 5611 5610 5610 5609 5609 5608 5607 5607 5606 5606 5605 5604 5604 5603 5603 5602 5602 5602 5602 5602 5602 5602 5602 5602 5602 5601 5601 5601 5601 5601 5601 5602 5602 5602 5603 5603 5603 5603 5603 5604 5604 5605 5605 5606 5607 5608 5609 5610
5632 5631 5630 5629 5629 5628 5628 5627 5626 5626 5625 5624 5623 5622 5622 5621 5621 5620 5619 5618 5617 5616 5615 5614 5614 5613 5612 5611 5611 5610 5609 5609 5608 5608 5607 5607 5606 5606 5605 5605 5604 5604 5603 5602 5602 5601 5601 5600 5599 5599 5599 5598 5598 5597 5597 5597 5597 5597 5597 5597 5597 5597 5597 5597 5596 5596 5596 5596 5596 5596 5596 5597 5597 5597 5598 5598 5598 5598 5599 5600 5600 5601 5601 5602 5603